Regional Weather Roundup
Issued by NWS

Current Version | Previous Version | Text Only | Print | Product List | Glossary On
Versions: 1 2 3 4 5 6 7 8 9 10 11 12 13 14 15 16 17 18 19 20 21 22 23 24 25 26 27 28 29 30 31 32 33 34 35 36 37 38 39 40 41 42 43 44 45 46 47 48 49 50
771
ASUS44 KOUN 111910
RWROK

WEATHER ROUNDUP FOR OKLAHOMA
NATIONAL WEATHER SERVICE NORMAN OK
100 PM CST MON DEC 11 2017

NOTE: "FAIR" INDICATES FEW OR NO CLOUDS BELOW 12,000 FEET WITH NO
      SIGNIFICANT WEATHER AND/OR OBSTRUCTIONS TO VISIBILITY.

OKZ001>007-009>012-014-015-017-112000-
NORTHWEST OKLAHOMA AND THE PANHANDLE

CITY           SKY/WX    TMP DP  RH WIND       PRES   REMARKS
GAGE           SUNNY     65  14  14 N14       30.20F
GUYMON         SUNNY     63  15  15 N21       30.25F
ENID/WOODRING  SUNNY     64  21  19 MISG      30.13F
$$

OKZ016-021>023-033>039-044-045-112000-
SOUTHWEST OKLAHOMA

CITY           SKY/WX    TMP DP  RH WIND       PRES   REMARKS
LAWTON/REGL    SUNNY     68  22  17 CALM      30.14F
LAWTON/FT SILL SUNNY     68  30  24 CALM      30.12F
FREDERICK      SUNNY     68  18  14 NW9       30.14F
CLINTON        SUNNY     64  11  12 N17G25    30.18F
HOBART         SUNNY     70  14  11 N13       30.16F
ALTUS AFB      SUNNY     71   6   8 NW9       30.15F
$$

OKZ018>020-024>031-112000-
CENTRAL OKLAHOMA

CITY           SKY/WX    TMP DP  RH WIND       PRES   REMARKS
OKLAHOMA CITY  SUNNY     65  14  14 NW22      30.13S
OKC/WILEY POST SUNNY     63  15  15 N15       30.14S
OKC/TINKER AFB SUNNY     67  18  15 NW17      30.11F
STILLWATER     SUNNY     62  16  16 NW9       30.12F
GUTHRIE        SUNNY     62  18  18 NW8       30.13F
$$

OKZ008-013-054>072-112000-
NORTHEAST OKLAHOMA

CITY           SKY/WX    TMP DP  RH WIND       PRES   REMARKS
TULSA          MOSUNNY   65  18  16 W12       30.07F
TULSA/JONES    SUNNY     67  15  13 NW9       30.06F
PONCA CITY     SUNNY     64  17  16 N12       30.10F
BARTLESVILLE   SUNNY     68  15  13 N6        30.07F
MUSKOGEE       SUNNY     71  13  10 W13       30.06F
$$

OKZ032-040>043-046>053-073>077-112000-
SOUTH CENTRAL/SOUTHEAST OKLAHOMA

CITY           SKY/WX    TMP DP  RH WIND       PRES   REMARKS
ARDMORE/DWNTWN SUNNY     68  14  12 W9        30.12F
MCALESTER      MOSUNNY   75  21  13 NW7       30.07F
$$





USA.gov is the U.S. government's official web portal to all federal, state and local government web resources and services.